[[{"header":{"parameterUnit":"m.s-1","parameterCategory":1,"la1":30.2991,"la2":30.254,"lo1":-89.0895,"lo2":-89.0444,"dy":0.0017,"dx":0.0017,"nx":28,"ny":28,"refTime":"2023-10-22T09:00:00:Z","depth":0,"parameterNumber":2,"parameterNumberName":"U-component_of_WINDS"},"data":[0,0,0,0,0,0,0,0,0,0,0,0,0,0,0,0,0,0,0,0,0,0,0,0,0,0,0,0,0,0,0,0,0,0,0,0,0,0,0,0,0,0,0,0,0,0,0,0,0,0,0,0,0,0,0,0,0,0,0.8702,0.8703,0,0.8808,0.881,0.8811,0.881,0.8809,0.8807,0.8806,0.8916,0.892,0.8924,0,0,0,0,0,0,0,0,0,0,0,0,0,0.85,0.8504,0.8702,0.8703,0.8705,0.8808,0.881,0.8811,0.881,0.8809,0.8807,0.8805,0.8915,0.892,0.8925,0,0,0,0,0,0,0,0,0,0,0,0,0,0.8595,0.8505,0.8702,0.8717,0.8719,0.8808,0.881,0.8812,0.8811,0.8809,0.8806,0.8804,0.8913,0.8919,0.8925,0.9007,0,0,0.8945,0.8948,0,0,0,0,0,0,0,0,0.859,0.8603,0.8713,0.8716,0.8719,0.8794,0.8779,0.8877,0.8811,0.8776,0.8806,0.8803,0.8877,0.8886,0.8911,0.9012,0.9017,0.8945,0.8949,0.8952,0.8954,0,0,0,0,0,0,0,0.8583,0.8598,0.8744,0.8715,0.8718,0.8719,0.873,0.8798,0.8837,0.8779,0.8779,0.8792,0.8878,0.8905,0.8913,0.9018,0.8945,0.8951,0.8955,0.8957,0.9195,0.9197,0,0,0,0,0,0,0.8573,0.8593,0.8741,0.8747,0.8648,0.8724,0.8737,0.8772,0.8836,0.8844,0.8793,0.8791,0.8895,0.8906,0.8917,0.9019,0.8952,0.8958,0.8962,0.9192,0.9195,0.9198,0,0,0,0,0,0,0.8569,0.8587,0.8736,0.867,0.8689,0.873,0.8769,0.8775,0.8802,0.8847,0.8854,0.8813,0.8894,0.8908,0.8985,0.9023,0.8961,0.8967,0.9189,0.9193,0.9197,0.9222,0,0,0,0,0,0,0.8563,0.8585,0.8616,0.8671,0.8693,0.8802,0.8772,0.8779,0.8812,0.8811,0.8868,0.8875,0.8893,0.8976,0.8992,0.903,0.8971,0.9186,0.9191,0.9195,0.9218,0.9226,0.9233,0,0,0,0,0,0.8556,0.8618,0.8617,0.8635,0.8732,0.8804,0.8816,0.8836,0.8815,0.8847,0.8877,0.8873,0.9016,0.8984,0.9001,0.9043,0.9184,0.919,0.9195,0.9214,0.9224,0.9233,0,0,0,0,0,0,0.8566,0.8626,0.8625,0.8707,0.875,0.8803,0.8844,0.8845,0.8896,0.8892,0.8914,0.8927,0.9004,0.9031,0.8994,0.9126,0.9097,0.9107,0.9106,0.9116,0.9123,0.9116,0.8977,0,0,0,0,0,0.8578,0.8631,0.868,0.8747,0.8769,0.8803,0.8835,0.8846,0.8892,0.8911,0.8946,0.8991,0.9047,0.9083,0.9136,0.9221,0.9235,0.9259,0.9266,0.9272,0.9281,0.9331,0.9343,0.9216,0.9216,0.9216,0,0,0.8603,0.8642,0.8674,0.875,0.8785,0.8841,0.8818,0.8877,0.8919,0.892,0.8995,0.9023,0.9075,0.9157,0.9195,0.9182,0.9319,0.928,0.9284,0.9289,0.9338,0.935,0.936,0.922,0.9219,0.9219,0,0,0.8676,0.871,0.8771,0.8807,0.8861,0.8883,0.8898,0.8952,0.897,0.9046,0.9048,0.9099,0.9193,0.9231,0.9262,0.9353,0.9353,0.937,0.9409,0.9458,0.9468,0.9477,0.9512,0.9523,0.9377,0.9378,0.9378,0,0.87,0.8784,0.8802,0.8863,0.8897,0.8901,0.8964,0.8998,0.9066,0.909,0.9074,0.9194,0.923,0.9322,0.9345,0.9369,0.9388,0.9364,0.9465,0.9474,0.9483,0.9516,0.9529,0.9379,0.9379,0.9379,0.9379,0,0.8812,0.887,0.8912,0.8979,0.9018,0.9079,0.9109,0.9147,0.9155,0.918,0.9258,0.9301,0.9364,0.9386,0.9394,0.9481,0.9472,0.946,0.9432,0.9496,0.9528,0.9541,0.9382,0.9381,0.9381,0.938,0,0,0.8894,0.8972,0.8987,0.9019,0.9079,0.9125,0.9187,0.9249,0.9282,0.9329,0.9383,0.9464,0.9454,0.949,0.9503,0.9545,0.9618,0.9529,0.9531,0.9546,0.9718,0.9728,0.9742,0.9617,0.962,0.9622,0.9715,0,0.8976,0.9086,0.9106,0.9203,0.9258,0.9263,0.9317,0.9361,0.9386,0.9437,0.9465,0.9522,0.9504,0.9526,0.9568,0.96,0.9653,0.9593,0.9669,0.9672,0.9658,0.9758,0.9768,0.9853,0.9727,0.9729,0.973,0,0.9085,0.9137,0.9239,0.9294,0.9318,0.9367,0.9426,0.9474,0.9525,0.954,0.9582,0.959,0.9657,0.9625,0.9718,0.9677,0.9709,0.973,0.9734,0.9742,0.9706,0.9772,0.9881,0.9895,0.975,0.9748,0.9747,0,0.9138,0.9232,0.9306,0.9333,0.9398,0.9433,0.9462,0.951,0.9547,0.96,0.9624,0.9683,0.9716,0.9763,0.9788,0.9761,0.988,0.9849,0.9896,0.9896,0.9922,0.992,1.0039,0.994,0.994,0.9939,0.9939,0,0.9228,0.9291,0.9331,0.9377,0.9448,0.9471,0.9542,0.957,0.9614,0.9666,0.9674,0.9723,0.9752,0.9806,0.9826,0.9902,0.9916,0.9932,0.9937,0.9932,0.993,0.9954,0.995,0.9943,0.9942,0.9941,0.9941,0,0.9299,0.9328,0.9409,0.9466,0.9481,0.9532,0.958,0.9626,0.9651,0.9718,0.9735,0.9775,0.9839,0.9869,0.9948,0.9961,1.0048,1.0048,1.0031,1.0033,1.0079,1.0075,1.022,1.0241,1.0126,1.0127,1.0127,0,0.9355,0.9403,0.9465,0.9501,0.9531,0.9588,0.9626,0.9651,0.9691,0.9754,0.9792,0.9856,0.991,1.0012,1.0049,1.0111,1.0113,1.016,1.0122,1.0117,1.0116,1.0114,1.012,1.0167,1.0168,1.0169,1.0169,0,0.9452,0.9464,0.9519,0.9579,0.9624,0.9673,0.972,0.9749,0.9782,0.9827,0.9893,0.9934,1.0016,1.008,1.0145,1.0176,1.0179,1.0181,1.0195,1.0192,1.0181,1.019,1.0051,1.0178,1.0177,1.0176,1.0176,1.0175,0.9518,0.9563,0.9614,0.9675,0.9714,0.9759,0.9805,0.9837,0.9892,0.9961,0.9972,1.0043,1.0095,1.0181,1.0215,1.0272,1.0261,1.0281,1.0287,1.0292,1.0296,1.0171,1.0283,1.0283,1.0283,1.0283,1.0283,0,0.9617,0.9651,0.9707,0.9774,0.9823,0.9821,0.9874,0.9916,0.9978,1.0025,1.0078,1.0155,1.0219,1.0261,1.0326,1.0364,1.0367,1.038,1.0378,1.0386,1.0301,1.0283,1.0376,1.0376,1.0376,1.0376,1.0376,1.0376,0.9675,0.9751,0.977,0.9866,0.99,0.9969,1.0,1.0043,1.0081,1.0167,1.022,1.0247,1.0294,1.0363,1.0421,1.0433,1.0457,1.0471,1.0482,1.0401,1.0392,1.0382,1.0366,1.0475,1.0475,1.0562,1.0563,1.0564]},{"header":{"parameterUnit":"m.s-1","parameterCategory":1,"la1":30.2991,"la2":30.254,"lo1":-89.0895,"lo2":-89.0444,"dy":0.0017,"dx":0.0017,"nx":28,"ny":28,"refTime":"2023-10-22T09:00:00:Z","depth":0,"parameterNumber":3,"parameterNumberName":"V-component_of_WINDS"},"data":[0,0,0,0,0,0,0,0,0,0,0,0,0,0,0,0,0,0,0,0,0,0,0,0,0,0,0,0,0,0,0,0,0,0,0,0,0,0,0,0,0,0,0,0,0,0,0,0,0,0,0,0,0,0,0,0,0,0,0.2445,0.2444,0,0.2401,0.2401,0.24,0.2308,0.2306,0.2304,0.2303,0.2262,0.2262,0.2263,0,0,0,0,0,0,0,0,0,0,0,0,0,0.2451,0.2451,0.2445,0.2444,0.2444,0.2401,0.2401,0.24,0.2308,0.2306,0.2304,0.2302,0.2262,0.2262,0.2263,0,0,0,0,0,0,0,0,0,0,0,0,0,0.2432,0.2452,0.2445,0.2393,0.2387,0.2401,0.2401,0.24,0.2309,0.2306,0.2303,0.2301,0.2261,0.2262,0.2263,0.2326,0,0,0.2266,0.2267,0,0,0,0,0,0,0,0,0.2433,0.2432,0.2401,0.2396,0.239,0.2357,0.2388,0.2375,0.231,0.2339,0.2303,0.2299,0.2296,0.2294,0.2292,0.2324,0.2322,0.2266,0.2267,0.2267,0.2268,0,0,0,0,0,0,0,0.2435,0.2433,0.2427,0.24,0.2394,0.2372,0.2367,0.2385,0.2334,0.2336,0.2329,0.2325,0.2293,0.2291,0.2291,0.2321,0.2266,0.2267,0.2268,0.2268,0.2403,0.2406,0,0,0,0,0,0,0.2443,0.2435,0.2429,0.2426,0.2405,0.2375,0.2368,0.2371,0.2333,0.2325,0.2328,0.2321,0.2291,0.2289,0.2289,0.2361,0.2267,0.2268,0.2269,0.24,0.2404,0.2407,0,0,0,0,0,0,0.2444,0.2444,0.2431,0.2429,0.2425,0.2377,0.2381,0.2371,0.237,0.2327,0.2318,0.2336,0.2289,0.2287,0.2317,0.2358,0.2269,0.227,0.2396,0.2401,0.2405,0.2504,0,0,0,0,0,0,0.2444,0.2444,0.2467,0.243,0.2426,0.2459,0.2384,0.2373,0.2371,0.2362,0.2332,0.2324,0.2286,0.2316,0.2318,0.2358,0.227,0.2393,0.2398,0.2404,0.2497,0.2512,0.2524,0,0,0,0,0,0.2445,0.2497,0.2468,0.2468,0.2453,0.2462,0.246,0.2414,0.2375,0.2398,0.237,0.2325,0.2352,0.232,0.2321,0.2362,0.239,0.2397,0.2403,0.2491,0.2509,0.2524,0,0,0,0,0,0,0.2541,0.2491,0.2459,0.25,0.2486,0.2446,0.2474,0.2434,0.2431,0.2423,0.2367,0.2361,0.2399,0.2383,0.2348,0.2421,0.2364,0.2371,0.243,0.2447,0.246,0.2464,0.2271,0,0,0,0,0,0.2567,0.2577,0.2533,0.2574,0.2568,0.2523,0.2525,0.2491,0.2474,0.2468,0.2442,0.2429,0.2434,0.2439,0.2441,0.2493,0.2487,0.2522,0.2535,0.2546,0.2554,0.2582,0.2598,0.2429,0.2429,0.2429,0,0,0.2621,0.2595,0.2605,0.2593,0.2578,0.2591,0.2518,0.2535,0.2545,0.247,0.2497,0.2478,0.2459,0.2501,0.2518,0.2489,0.2599,0.2555,0.2564,0.2566,0.2591,0.2607,0.2622,0.2433,0.2433,0.2432,0,0,0.2727,0.2707,0.274,0.2726,0.2703,0.2672,0.268,0.2646,0.263,0.2656,0.2601,0.2611,0.2622,0.2611,0.2607,0.2708,0.2667,0.271,0.2781,0.2809,0.2823,0.2834,0.2873,0.2887,0.2718,0.2718,0.2718,0,0.2798,0.2815,0.2762,0.2783,0.278,0.2711,0.2745,0.2734,0.2714,0.2714,0.2681,0.2692,0.2675,0.2714,0.2738,0.2736,0.2745,0.2715,0.2824,0.2836,0.2846,0.2882,0.2896,0.2723,0.2723,0.2722,0.2722,0,0.2904,0.2916,0.2945,0.2927,0.2926,0.2953,0.2906,0.2913,0.2878,0.2851,0.2879,0.2855,0.2852,0.2858,0.2825,0.2893,0.2876,0.2834,0.2777,0.2868,0.2902,0.2915,0.2731,0.2729,0.2728,0.2726,0,0,0.3071,0.3022,0.3034,0.3026,0.2995,0.3004,0.3028,0.3024,0.3032,0.302,0.304,0.305,0.3011,0.3007,0.2972,0.2996,0.308,0.2951,0.295,0.2978,0.3156,0.319,0.3206,0.3051,0.3054,0.3056,0.3158,0,0.3172,0.321,0.3164,0.3212,0.3224,0.3159,0.318,0.3164,0.3139,0.3146,0.3119,0.3128,0.3075,0.3072,0.3093,0.3066,0.3116,0.3057,0.3072,0.3074,0.3082,0.3223,0.3258,0.3357,0.3171,0.3173,0.3174,0,0.3296,0.3289,0.3339,0.3305,0.3309,0.3328,0.3322,0.3328,0.331,0.329,0.3284,0.3242,0.3265,0.3206,0.3238,0.3199,0.3202,0.319,0.3193,0.3195,0.3132,0.3232,0.3387,0.3403,0.3194,0.3192,0.3191,0,0.3416,0.3419,0.345,0.3444,0.3405,0.3421,0.3406,0.3384,0.3385,0.3378,0.3379,0.3376,0.3375,0.3374,0.3333,0.3294,0.337,0.3308,0.3357,0.3358,0.3378,0.3378,0.3539,0.3376,0.3375,0.3375,0.3375,0,0.3536,0.357,0.3503,0.3523,0.3559,0.3504,0.3542,0.352,0.3501,0.3516,0.3459,0.3474,0.3416,0.3426,0.3393,0.3426,0.3425,0.3411,0.3403,0.3418,0.3421,0.3422,0.3415,0.3379,0.3378,0.3377,0.3377,0,0.3678,0.3635,0.3664,0.3624,0.3615,0.3644,0.3611,0.3627,0.3598,0.3617,0.3619,0.3573,0.3582,0.3539,0.354,0.3518,0.3568,0.3546,0.3575,0.3569,0.3621,0.3618,0.379,0.3811,0.3632,0.3634,0.3636,0,0.3759,0.3783,0.3745,0.3751,0.3738,0.3747,0.3747,0.3695,0.3698,0.3678,0.3698,0.3701,0.3701,0.3717,0.3686,0.3686,0.3666,0.3726,0.3666,0.3681,0.367,0.3671,0.3674,0.374,0.3742,0.3744,0.3746,0,0.3907,0.3884,0.3886,0.3881,0.3883,0.3876,0.3866,0.3874,0.3817,0.3823,0.3831,0.3831,0.3831,0.3836,0.383,0.3815,0.3773,0.3764,0.3776,0.3794,0.381,0.3805,0.3612,0.3761,0.376,0.3759,0.3758,0.3757,0.4023,0.4042,0.4018,0.4023,0.4009,0.4001,0.4015,0.3987,0.3992,0.3988,0.3956,0.397,0.395,0.3938,0.3927,0.3938,0.391,0.3926,0.3931,0.3937,0.3947,0.3806,0.3937,0.3936,0.3936,0.3935,0.3935,0,0.417,0.4152,0.4156,0.4143,0.4147,0.4103,0.409,0.4097,0.4109,0.4094,0.4095,0.4104,0.4108,0.4076,0.4076,0.4092,0.4072,0.4094,0.4094,0.4092,0.3971,0.3962,0.411,0.411,0.411,0.411,0.411,0.411,0.4248,0.4279,0.4253,0.4277,0.4258,0.427,0.4267,0.4259,0.4247,0.426,0.4262,0.424,0.4219,0.4217,0.422,0.421,0.4214,0.4244,0.4228,0.4117,0.41,0.4084,0.4075,0.4244,0.4244,0.4348,0.4349,0.435]}]]